Location: Unspecified
(54.1780°N, 0.0000°E)
Time: 03:53:01
(UTC+00:00)

SR - Visible Passes

Search period start: 18 June 2019 00:00
Search period end: 28 June 2019 00:00
Orbit: 582 x 874 km, 66.7° (Epoch: 17 June)

Date Brightness Start Highest point End Pass type
(mag) Time Alt. Az. Time Alt. Az. Time Alt. Az.
23 Jun ? 02:25:01 10° SE 02:26:42 12° ESE 02:28:23 10° E visible
25 Jun ? 02:25:48 10° SSE 02:29:03 22° ESE 02:32:23 10° ENE visible
26 Jun ? 01:38:28 10° SE 01:39:53 11° ESE 01:41:17 10° E visible
27 Jun ? 02:27:36 10° S 02:31:31 37° ESE 02:35:36 10° NE visible
